Location: Maynard F. Jordan Observatory
(44.9000°N, 68.6700°W)
Time: 12:26:40
(UTC-05:00)

Cosmos 2297 Rocket - Visible Passes

Search period start: 24 January 2017 00:00
Search period end: 03 February 2017 00:00
Orbit: 839 x 844 km, 71.0° (Epoch: 22 January)

Date Brightness Start Highest point End Pass type
(mag) Time Alt. Az. Time Alt. Az. Time Alt. Az.
24 Jan 4.1 04:07:49 18° N 04:07:49 18° N 04:09:22 10° NNE visible
25 Jan 4.4 03:53:15 15° N 03:53:15 15° N 03:54:17 10° NNE visible
26 Jan 4.6 03:38:38 13° NNE 03:38:38 13° NNE 03:39:13 10° NNE visible
27 Jan 4.8 03:23:59 11° NNE 03:23:59 11° NNE 03:24:09 10° NNE visible
